Powrót do katalogu

OPTUS A2

AUSSAT 2

AktywnyŁącznośćGEO
NORAD 16275·PAYLOAD·🇦🇺 Australia

Wystrzelony Nov 27, 1985 z Cape Canaveral Space Force Station

Loading…

TLE

ŚwieżeSource: Space-Track

Epoka: Sep 14, 2026, 00:01 UTC

1 16275U 85109C   26257.00120975 -.00000220  00000-0  00000-0 0  9995
2 16275  13.2921 339.4875 0005335 298.5122  56.3994  0.99953865 47411

Śledź OPTUS A2 w czasie rzeczywistym z AllMySat

Download on the App Store